[[{"header":{"parameterUnit":"m.s-1","parameterCategory":1,"la1":30.2992,"la2":30.254,"lo1":-89.0895,"lo2":-89.0443,"dy":0.0025,"dx":0.0025,"nx":19,"ny":19,"refTime":"2026-04-21T09:00:00:Z","depth":0,"parameterNumber":2,"parameterNumberName":"U-component_of_WINDS"},"data":[0,0,0,-3.5005,-3.5008,-3.514,-3.514,-3.5309,-3.5311,0,0,0,0,0,0,0,0,0,0,0,-3.4968,-3.4969,-3.5005,-3.5009,-3.514,-3.514,-3.5309,-3.5311,0,0,0,0,0,0,0,0,0,0,0,-3.4968,-3.4969,-3.4971,-3.5009,-3.514,-3.514,-3.5308,-3.5209,0,0,0,0,0,0,0,0,0,0,-3.5081,-3.5048,-3.4969,-3.4971,-3.501,-3.5139,-3.514,-3.5204,-3.5215,-3.525,0,-3.5283,0,-3.53,-3.5322,-3.5323,0,0,0,-3.5007,-3.5039,-3.5073,-3.4971,-3.5011,-3.5139,-3.508,-3.521,-3.5223,-3.5265,-3.5285,-3.5292,-3.5302,-3.5323,-3.5324,-3.5534,-3.5535,0,0,-3.5,-3.4992,-3.5065,-3.5081,-3.5062,-3.5076,-3.5084,-3.5218,-3.5239,-3.5286,-3.5295,-3.5305,-3.5324,-3.5326,-3.5533,-3.5534,0,0,0,-3.498,-3.4987,-3.5018,-3.5075,-3.5098,-3.508,-3.5089,-3.5233,-3.5244,-3.5297,-3.5307,-3.5325,-3.5327,-3.5532,-3.5533,-3.5576,0,0,0,-3.4976,-3.4976,-3.5015,-3.5012,-3.5096,-3.5168,-3.5102,-3.5235,-3.525,-3.5306,-3.5325,-3.5329,-3.553,-3.5532,-3.5573,-3.5597,0,0,0,-3.4959,-3.4974,-3.4994,-3.5011,-3.5067,-3.5166,-3.5184,-3.5238,-3.5256,-3.5323,-3.5329,-3.553,-3.5532,-3.5569,-3.5592,-3.5649,0,0,0,-3.4939,-3.5031,-3.4994,-3.5101,-3.5066,-3.5192,-3.5183,-3.5277,-3.534,-3.5326,-3.5531,-3.5533,-3.5568,-3.5589,-3.5645,-3.5694,-3.5714,0,0,-3.505,-3.5044,-3.5107,-3.5078,-3.5208,-3.5173,-3.5309,-3.5374,-3.5387,-3.5484,-3.5489,-3.5574,-3.5592,-3.5648,-3.5833,-3.5849,0,0,0,-3.514,-3.5185,-3.5221,-3.528,-3.5332,-3.5378,-3.5422,-3.5446,-3.5529,-3.5436,-3.5611,-3.5622,-3.5655,-3.5678,-3.5692,-3.572,-3.5544,-3.5544,-3.5544,-3.5286,-3.5298,-3.5402,-3.543,-3.5488,-3.5533,-3.558,-3.5619,-3.5615,-3.5656,-3.5684,-3.5795,-3.5822,-3.5832,-3.5861,-3.5713,-3.5713,-3.5713,-3.5713,-3.5448,-3.5513,-3.5505,-3.5603,-3.5615,-3.5698,-3.5744,-3.5738,-3.5816,-3.5775,-3.5805,-3.5757,-3.5849,-3.5875,-3.5717,-3.5716,-3.5716,-3.5715,-3.5715,-3.5543,-3.5576,-3.5604,-3.569,-3.5755,-3.5781,-3.5855,-3.5864,-3.5873,-3.5903,-3.5932,-3.5931,-3.593,-3.5917,-3.5917,-3.5918,-3.5918,-3.5918,-3.5918,-3.563,-3.566,-3.5722,-3.5784,-3.5823,-3.5875,-3.5921,-3.5959,-3.6003,-3.6003,-3.6004,-3.5993,-3.5857,-3.5821,-3.5924,-3.5923,-3.5922,-3.5922,-3.5922,-3.5786,-3.5752,-3.5848,-3.5886,-3.596,-3.6023,-3.6034,-3.611,-3.6143,-3.6179,-3.6164,-3.6062,-3.6056,-3.6045,-3.6015,-3.6162,-3.6162,-3.6162,-3.6162,-3.5864,-3.5862,-3.5961,-3.6022,-3.6083,-3.6103,-3.6209,-3.6245,-3.6278,-3.6298,-3.6279,-3.6241,-3.623,-3.623,-3.6215,-3.6187,-3.6375,-3.6375,-3.6375,-3.596,-3.5964,-3.6053,-3.6084,-3.6142,-3.6191,-3.6291,-3.636,-3.639,-3.6384,-3.6314,-3.6305,-3.6244,-3.6224,-3.6214,-3.6191,-3.614,0,0]},{"header":{"parameterUnit":"m.s-1","parameterCategory":1,"la1":30.2992,"la2":30.254,"lo1":-89.0895,"lo2":-89.0443,"dy":0.0025,"dx":0.0025,"nx":19,"ny":19,"refTime":"2026-04-21T09:00:00:Z","depth":0,"parameterNumber":3,"parameterNumberName":"V-component_of_WINDS"},"data":[0,0,0,3.2677,3.2678,3.2707,3.2707,3.2762,3.2762,0,0,0,0,0,0,0,0,0,0,0,3.2681,3.2681,3.2677,3.2678,3.2707,3.2707,3.2761,3.2762,0,0,0,0,0,0,0,0,0,0,0,3.268,3.2681,3.2682,3.2679,3.2707,3.2707,3.2761,3.2733,0,0,0,0,0,0,0,0,0,0,3.2702,3.2717,3.2681,3.2682,3.2679,3.2707,3.2707,3.2732,3.2735,3.2757,0,3.2779,0,3.2772,3.2767,3.2767,0,0,0,3.267,3.2714,3.2711,3.2682,3.2679,3.2707,3.2691,3.2733,3.2737,3.2761,3.278,3.2782,3.2773,3.2768,3.2768,3.2923,3.2924,0,0,3.2668,3.2692,3.2709,3.2714,3.2711,3.2691,3.2692,3.2735,3.2757,3.278,3.2782,3.2774,3.2768,3.2769,3.2922,3.2923,0,0,0,3.2669,3.2691,3.2687,3.2713,3.2716,3.2692,3.2694,3.2755,3.2752,3.2783,3.2774,3.2768,3.2769,3.292,3.2922,3.3,0,0,0,3.2668,3.2692,3.2687,3.2701,3.2716,3.2736,3.2713,3.2749,3.2753,3.2774,3.2769,3.277,3.2919,3.2921,3.2995,3.3032,0,0,0,3.2675,3.2692,3.27,3.2703,3.2716,3.2735,3.2734,3.2749,3.2748,3.2767,3.277,3.2918,3.2921,3.299,3.3025,3.3078,0,0,0,3.2688,3.277,3.2702,3.2789,3.2716,3.2783,3.2733,3.2782,3.2808,3.2769,3.2919,3.2922,3.2989,3.302,3.3074,3.3126,3.3151,0,0,3.2804,3.2784,3.2834,3.2774,3.286,3.2777,3.2874,3.2875,3.2856,3.2902,3.2905,3.2996,3.3024,3.3077,3.3284,3.3304,0,0,0,3.2878,3.2914,3.2931,3.2957,3.2961,3.2966,3.2951,3.2951,3.2989,3.2884,3.3031,3.3046,3.3077,3.31,3.3117,3.3141,3.2935,3.2934,3.2934,3.3074,3.3045,3.3124,3.3099,3.3125,3.3108,3.3126,3.3124,3.3087,3.3122,3.3135,3.3264,3.3293,3.3305,3.333,3.3162,3.3162,3.3162,3.3162,3.3239,3.3284,3.3234,3.3292,3.3261,3.331,3.3298,3.327,3.3311,3.3252,3.3277,3.3213,3.3328,3.3348,3.3168,3.3167,3.3166,3.3166,3.3165,3.3362,3.3378,3.3378,3.3412,3.3442,3.3414,3.3455,3.3426,3.3398,3.3423,3.3433,3.3431,3.3425,3.343,3.3431,3.3431,3.3432,3.3432,3.3432,3.3489,3.3486,3.3525,3.3536,3.3548,3.3561,3.3546,3.3557,3.3562,3.3537,3.3537,3.3496,3.3345,3.3306,3.3439,3.3438,3.3437,3.3436,3.3436,3.3663,3.3619,3.3679,3.3692,3.3702,3.3733,3.3695,3.3721,3.3727,3.3748,3.3702,3.3596,3.3573,3.356,3.3527,3.3709,3.3709,3.3709,3.3709,3.3766,3.3752,3.3806,3.3828,3.3847,3.3819,3.3886,3.3876,3.3858,3.3859,3.3829,3.3785,3.3772,3.3757,3.3739,3.3708,3.3932,3.3932,3.3932,3.3871,3.3858,3.3921,3.3903,3.3908,3.3914,3.3976,3.4004,3.3974,3.3941,3.3859,3.385,3.3778,3.3756,3.3719,3.3692,3.3635,0,0]}]]